This is the latest recevied weather packets stored in our database for station/object KO4LFZ. If no packets are shown the sender has not sent any weather packets the latest 10 day(s).
| Time | Temp. | Humidity | Pressure | Rain* | Wind** | Luminosity | Snow |
|---|---|---|---|---|---|---|---|
| 1777568067 | 16.11° C | 46% | 1018 hPa | 0 mm | - | 636 W/m² | - |
| 1777567764 | 16.67° C | 45% | 1018.2 hPa | 0 mm | - | 657 W/m² | - |
| 1777567460 | 16.67° C | 45% | 1018.1 hPa | 0 mm | - | 624 W/m² | - |
| 1777567158 | 16.11° C | 51% | 1018.2 hPa | 0 mm | - | 726 W/m² | - |
| 1777566856 | 15.56° C | 42% | 1018.5 hPa | 0 mm | - | 698 W/m² | - |
| 1777566554 | 15.56° C | 43% | 1018.4 hPa | 0 mm | - | 585 W/m² | - |
| 1777566251 | 15.56° C | 43% | 1018.5 hPa | 0 mm | - | 634 W/m² | - |
| 1777565948 | 15.56° C | 44% | 1018.5 hPa | 0 mm | - | 556 W/m² | - |
| 1777565643 | 15.56° C | 46% | 1018.4 hPa | 0 mm | - | 589 W/m² | - |
| 1777565340 | 15.56° C | 44% | 1018.2 hPa | 0 mm | - | 532 W/m² | - |
| 1777565036 | 15.56° C | 45% | 1018.1 hPa | 0 mm | - | 495 W/m² | - |
| 1777564731 | 15.56° C | 47% | 1018.1 hPa | 0 mm | - | 493 W/m² | - |
| 1777564427 | 15° C | 44% | 1018 hPa | 0 mm | - | 506 W/m² | - |
| 1777564123 | 15° C | 48% | 1018.1 hPa | 0 mm | - | 492 W/m² | - |
| 1777563819 | 15° C | 47% | 1017.9 hPa | 0 mm | - | 478 W/m² | - |
| 1777563516 | 15° C | 49% | 1018 hPa | 0 mm | - | 472 W/m² | - |
| 1777563215 | 15° C | 50% | 1018 hPa | 0 mm | - | 636 W/m² | - |
| 1777562912 | 15.56° C | 48% | 1017.9 hPa | 0 mm | - | 690 W/m² | - |
| 1777562608 | 15° C | 48% | 1018.1 hPa | 0 mm | - | 711 W/m² | - |
| 1777562307 | 15° C | 50% | 1018.3 hPa | 0 mm | - | 747 W/m² | - |
| 1777562003 | 15° C | 50% | 1018.3 hPa | 0 mm | - | 747 W/m² | - |
| 1777561701 | 15° C | 50% | 1018.3 hPa | 0 mm | - | 747 W/m² | - |
| 1777561396 | 15° C | 52% | 1018.1 hPa | 0 mm | - | 728 W/m² | - |
| 1777561091 | 15° C | 53% | 1018.1 hPa | 0 mm | - | 575 W/m² | - |
| 1777560787 | 15° C | 51% | 1017.9 hPa | 0 mm | - | 663 W/m² | - |
* Rain latest hour (hover to see other rain measurements)
** Current wind speed in m/s (hover to see current wind gust speed)